sat.trackr.live / text

‹ back to catalog

STARLINK-3202

NORAD 49742 · 2021-115U

PAYLOAD ACTIVE UNKNOWN

§ Identity

Operator
Country
US
Launch date
2021-12-02
Launch site
AFETR
Launch vehicle
Mass (kg)
RCS (m²)

Purposes: comms

External: N2YO · Heavens-Above · Gunter

§ Orbital elements

Epoch: 2026-09-19T22:23:27.242016Z

Period
93.79 min
Inclination
53.1603°
Eccentricity
0.0000962
Mean motion
15.35389570 rev/d
Perigee alt
459.1 km
Apogee alt
460.4 km
Semi-major
6,837.9 km
B*
-7.3842e-6
RAAN
344.0613°
Arg perigee
83.2969°
Mean anomaly
276.8144°
Rev number
26,503

§ Raw data

STARLINK-32021 49742U 21115U   26262.93295419 -.00000638  00000+0 -73842-5 0  99932 49742  53.1603 344.0613 0000962  83.2969 276.8144 15.35389570265035

JSON: /api/v1/satellites/49742 · /tle

For live sub-satellite position, see the globe view (requires WebGL).

§ Visibility from observer

Set your observer location to see the next 7 days of passes ≥ 10°. The values pass through the URL so the page stays shareable.

No JS? Fill the form by hand. The geolocation button needs JavaScript.